Time,TemperatureF,DewpointF,PressureIn,WindDirection,WindDirectionDegrees,WindSpeedMPH,WindSpeedGustMPH,Humidity,HourlyPrecipIn,Conditions,Clouds,dailyrainin,SolarRadiationWatts/m^2,SoftwareType,DateUTC
2013-02-22 00:00:00,21.0,14.0,-100.00,East,90,15.0,-999.0,72,-99.99,,,-99.99,0.000000,,2013-02-22 05:00:00,
2013-02-22 00:42:00,21.0,14.0,-100.00,East,90,15.0,-999.0,72,-99.99,,,-99.99,0.000000,,2013-02-22 05:42:00,
2013-02-22 00:52:00,21.0,14.0,-100.00,East,90,15.0,-999.0,72,-99.99,,,-99.99,0.000000,,2013-02-22 05:52:00,
2013-02-22 03:00:00,21.0,16.0,-100.00,East,90,12.0,-999.0,82,-99.99,,,-99.99,0.000000,,2013-02-22 08:00:00,
2013-02-22 03:42:00,21.0,16.0,-100.00,East,90,12.0,-999.0,82,-99.99,,,-99.99,0.000000,,2013-02-22 08:42:00,
2013-02-22 03:52:00,21.0,16.0,-100.00,East,90,12.0,-999.0,82,-99.99,,,-99.99,0.000000,,2013-02-22 08:52:00,
2013-02-22 06:00:00,22.0,19.0,-100.00,East,90,13.0,-999.0,89,-99.99,,,-99.99,0.000000,,2013-02-22 11:00:00,
2013-02-22 06:42:00,22.0,19.0,-100.00,East,90,13.0,-999.0,89,-99.99,,,-99.99,0.000000,,2013-02-22 11:42:00,
2013-02-22 06:52:00,22.0,19.0,-100.00,East,90,13.0,-999.0,89,-99.99,,,-99.99,0.000000,,2013-02-22 11:52:00,
2013-02-22 09:00:00,23.0,20.0,-100.00,ESE,112,9.0,-999.0,86,-99.99,,,-99.99,53.360001,,2013-02-22 14:00:00,
2013-02-22 09:42:00,23.0,20.0,-100.00,ESE,112,9.0,-999.0,86,-99.99,,,-99.99,53.360001,,2013-02-22 14:42:00,
2013-02-22 09:53:00,23.0,20.0,-100.00,ESE,112,9.0,-999.0,86,-99.99,,,-99.99,53.360001,,2013-02-22 14:53:00,
2013-02-22 12:00:00,26.0,21.0,-100.00,SE,135,7.0,-999.0,82,-99.99,,,-99.99,174.000000,,2013-02-22 17:00:00,
2013-02-22 12:42:00,26.0,21.0,-100.00,SE,135,7.0,-999.0,82,-99.99,,,-99.99,174.000000,,2013-02-22 17:42:00,
2013-02-22 12:52:00,26.0,21.0,-100.00,SE,135,7.0,-999.0,82,-99.99,,,-99.99,174.000000,,2013-02-22 17:52:00,
2013-02-22 15:00:00,29.0,26.0,-100.00,SSE,157,5.0,-999.0,86,0.03,,,-99.99,140.360001,,2013-02-22 20:00:00,
2013-02-22 15:42:00,29.0,26.0,-100.00,SSE,157,5.0,-999.0,86,0.03,,,-99.99,140.360001,,2013-02-22 20:42:00,
2013-02-22 15:52:00,29.0,26.0,-100.00,SSE,157,5.0,-999.0,86,0.03,,,-99.99,140.360001,,2013-02-22 20:52:00,
2013-02-22 18:00:00,32.0,29.0,-100.00,SSW,202,8.0,-999.0,91,-99.99,,,-99.99,12.760000,,2013-02-22 23:00:00,
2013-02-22 18:42:00,32.0,29.0,-100.00,SSW,202,8.0,-999.0,91,-99.99,,,-99.99,12.760000,,2013-02-22 23:42:00,
2013-02-22 18:52:00,32.0,29.0,-100.00,SSW,202,8.0,-999.0,91,-99.99,,,-99.99,12.760000,,2013-02-22 23:52:00,
2013-02-22 21:00:00,31.0,25.0,-100.00,WSW,247,15.0,-999.0,77,-99.99,,,-99.99,0.000000,,2013-02-23 02:00:00,
2013-02-22 21:42:00,31.0,25.0,-100.00,WSW,247,15.0,-999.0,77,-99.99,,,-99.99,0.000000,,2013-02-23 02:42:00,
2013-02-22 21:52:00,31.0,25.0,-100.00,WSW,247,15.0,-999.0,77,-99.99,,,-99.99,0.000000,,2013-02-23 02:52:00,